Home   Weather   Fairfield   Past weeks
Flag for USA

Past Weather in Fairfield, Texas, USA — Yesterday and Last 2 Weeks

Now
62 °F

Overcast.


Feels Like: 62 °F
Forecast: 64 / 53 °F
Wind: 9 mph from South

Location: Palestine Municipal Airport

Current Time: Dec 6, 2019 at 2:21:45 am

Latest Report: Dec 6, 2019 at 1:55 am


Visibility: 10 mi

Pressure: 29.99 "Hg

Humidity: 91%

Dew Point: 60 °F

Location of FairfieldLocation

Past Weather in Fairfield — Graph

°F

Fairfield Temperature Yesterday

Maximum temperature yesterday: 74 °F (at 3:15 pm)
Minimum temperature yesterday: 47 °F (at 1:55 am)
Average temperature yesterday: 61 °F

High & Low Weather Summary for the Past Weeks

 TemperatureHumidityPressure
High80 °F (Nov 30, 1:15 pm)100% (Nov 21, 3:35 am)30.36 "Hg (Nov 21, 3:35 am)
Low31 °F (Dec 2, 4:35 am)25% (Nov 27, 1:35 am)29.59 "Hg (Nov 26, 2:55 pm)
Average57 °F71%30.02 "Hg
* Reported Nov 21 1:15 am — Dec 6 1:15 am, Fairfield. Weather by CustomWeather, © 2019

Note: Actual official high and low records may vary slightly from our data, if they occured in-between our weather recording intervals... More about our weather records

Fairfield Weather History for the Previous 24 Hours

Scroll right to see more
 ConditionsComfort  
Time TempWeatherWind HumidityBarometerVisibility
1:15 am
Fri, Dec 6
63 °FOvercast.7 mph89%29.98 "Hg10 mi
12:55 am63 °FOvercast.10 mph89%29.98 "Hg10 mi
12:35 am63 °FOvercast.9 mph89%29.98 "Hg10 mi
12:15 am63 °FPassing clouds.10 mph89%29.98 "Hg10 mi
11:55 pm
Thu, Dec 5
63 °FClear.10 mph88%29.99 "Hg10 mi
11:30 pm63 °FClear.9 mph87%29.99 "Hg10 mi
11:15 pm64 °FClear.8 mph85%29.99 "Hg10 mi
10:55 pm64 °FClear.8 mph85%29.98 "Hg10 mi
10:35 pm64 °FClear.8 mph84%29.98 "Hg10 mi
10:15 pm65 °FClear.10 mph82%29.98 "Hg10 mi
9:35 pm65 °FClear.9 mph79%29.98 "Hg10 mi
9:15 pm65 °FClear.8 mph79%29.97 "Hg10 mi
8:55 pm65 °FClear.8 mph77%29.97 "Hg10 mi
8:35 pm66 °FClear.8 mph77%29.96 "Hg10 mi
8:15 pm66 °FClear.7 mph76%29.96 "Hg10 mi
7:55 pm66 °FClear.6 mph75%29.96 "Hg10 mi
7:35 pm67 °FClear.6 mph75%29.95 "Hg10 mi
7:15 pm67 °FClear.6 mph74%29.95 "Hg10 mi
6:55 pm67 °FClear.5 mph73%29.95 "Hg10 mi
6:35 pm68 °FClear.6 mph72%29.94 "Hg10 mi
6:15 pm69 °FClear.6 mph69%29.94 "Hg10 mi
5:55 pm69 °FClear.5 mph67%29.94 "Hg10 mi
5:35 pm70 °FClear.7 mph64%29.94 "Hg10 mi
5:15 pm71 °FSunny.12 mph63%29.93 "Hg10 mi
4:55 pm71 °FSunny.10 mph63%29.93 "Hg10 mi
4:35 pm72 °FSunny.12 mph61%29.93 "Hg10 mi
3:35 pm73 °FScattered clouds.15 mph58%29.93 "Hg10 mi
3:15 pm74 °FScattered clouds.16 mph55%29.94 "Hg10 mi
2:55 pm73 °FScattered clouds.10 mph59%29.94 "Hg10 mi
2:35 pm73 °FScattered clouds.14 mph59%29.95 "Hg10 mi
2:15 pm74 °FSunny.10 mph58%29.95 "Hg10 mi
1:55 pm73 °FSunny.9 mph59%29.96 "Hg10 mi
1:35 pm72 °FSunny.10 mph60%29.98 "Hg10 mi
1:15 pm71 °FSunny.12 mph61%29.98 "Hg10 mi
12:35 pm70 °FSunny.14 mph61%30.00 "Hg10 mi
12:15 pm71 °FSunny.15 mph59%30.01 "Hg10 mi
11:55 am71 °FSunny.6 mph55%30.03 "Hg10 mi
11:35 am70 °FSunny.9 mph53%30.04 "Hg10 mi
11:15 am68 °FSunny.8 mph51%30.05 "Hg10 mi
10:50 am67 °FSunny.12 mph46%30.06 "Hg10 mi
10:35 am67 °FSunny.10 mph45%30.07 "Hg10 mi
10:15 am65 °FSunny.13 mph50%30.07 "Hg10 mi
9:55 am64 °FSunny.7 mph54%30.08 "Hg10 mi
9:35 am62 °FSunny.8 mph55%30.08 "Hg10 mi
9:15 am59 °FSunny.7 mph62%30.07 "Hg10 mi
8:35 am54 °FSunny.6 mph69%30.07 "Hg10 mi
8:15 am54 °FSunny.5 mph68%30.07 "Hg10 mi
7:55 am53 °FSunny.5 mph68%30.07 "Hg10 mi
7:35 am52 °FSunny.5 mph68%30.07 "Hg10 mi
7:20 am51 °FSunny.5 mph70%30.07 "Hg10 mi
6:55 am50 °FClear.5 mph70%30.06 "Hg10 mi
6:35 am50 °FClear.5 mph69%30.06 "Hg10 mi
6:15 am50 °FClear.3 mph69%30.06 "Hg10 mi
5:55 am50 °FClear.3 mph68%30.06 "Hg10 mi
5:35 am50 °FClear.3 mph67%30.05 "Hg10 mi
5:15 am52 °FClear.No wind64%30.05 "Hg10 mi
4:55 am50 °FClear.No wind71%30.05 "Hg10 mi
4:35 am51 °FClear.No wind65%30.05 "Hg10 mi
4:15 am52 °FClear.No wind62%30.05 "Hg10 mi
3:55 am51 °FClear.No wind66%30.05 "Hg10 mi
3:35 am52 °FClear.No wind63%30.04 "Hg10 mi
3:15 am52 °FClear.No wind63%30.04 "Hg10 mi
2:35 am51 °FClear.3 mph65%30.05 "Hg10 mi
2:15 am52 °FClear.No wind63%30.05 "Hg10 mi
Weather by CustomWeather, © 2019

See weather overview

Advertising